FREGAT DEB (TANK), 43089

Orbit data source: Space-Track

FREGAT DEB (TANK), 43089 is space debris in LEO originally from a launch on Tue, 26 Dec 2017 UTC launched from the Tyuratam Missile And Space Complex (TTMTR). Debris objects in space refer to the collection of defunct objects orbiting the Earth. Examples of debris include non-operational satellites, rocket bodies, and fragments generated from explosions, collisions, or faulty payload assembly.

Loading next visibility...
Identifier
43089, 2017-086C
Orbit
LEO
Country
Flag of CISCIS
Related business
Manufacturer
Lavochkin
Mission
Spacecraft
Bus & Motor
FREGAT SBB, Unknown motor
Mass
360 kg wet, 360 kg dry
Launch date (UTC)
2017-12-26 (8 years ago)
Launch vehicle
Unknown
Launch site
Tyuratam Missile And Space Complex (TTMTR)
Object type
Payload
Rocket body
Debris
Shape & HBR
Torus, 1.9 m
Radar Cross Section
6.703 m², Large (>1 m²)

Expand to show TLE details & history
Last TLE update: 12 hours ago

TLE from 12 hours ago
0 FREGAT DEB (TANK)
1 43089U 17086C   25307.81899749  .00043591  52174-5  81255-3 0  9998
2 43089  50.3707 340.4353 1399626 329.5577  23.0737 12.78734905331504
Epoch: 2025-11-03T19:39Z
TLE epoch observation values (Epoch: 2025-11-03T19:39:21.383Z)
Latitude
-0.00002°
Longitude
2.28128°
Altitude
381.099 km
Speed
8.148 km/s
True Right ascension
22h 41m 44s
True Declination
0° 00' 00"
Sunlit
Object was in full shadow at epoch
Visualization orbit readout
Latitude
Unknown
Longitude
Unknown
Altitude
Unknown
Speed
Unknown
Apparent Right ascension
Unknown
Apparent Declination
Unknown
Sunlit
N/A
Visualization observer readout
Local Sidereal Time
03:18:17
Azimuth
Unknown
Elevation
Unknown
Doppler factor
Unknown
Orbital elements
Apogee altitude
2,428.473 km
Perigee altitude
265.953 km
Semi-major axis
7,725.35 km
Eccentricity
0.13996
Inclination
50.3707°
RAAN
340.4353°
Arg. of periapsis
329.5577°
True anomaly
30.53246°
Mean anomaly
23.0737°
Eccentric anomaly
26.67361°
Mean motion
3.19644 °/min
Orbital period
112.63 mins
BSTAR
0.00081255
Loading maneuver chart data...
Computing Atmospheric mass density...
Loading historical data...
Loading historical data...
Loading historical data...
Loading historical data...
Loading historical data...
Loading historical data...
Loading historical data...

Documentation

Showing up to 5 results
|